Regional Weather Roundup
Issued by NWS

Home | Current Version | Previous Version | Graphics & Text | Print | Product List | Glossary On
Versions: 1 2 3 4 5 6 7 8 9 10 11 12 13 14 15 16 17 18 19 20 21 22 23 24 25 26 27 28 29 30 31 32 33 34 35 36 37 38 39 40 41 42 43 44 45 46 47 48 49 50
000
ASUS45 KSLC 021410
RWRUT

UTAH REGIONAL WEATHER ROUNDUP
NATIONAL WEATHER SERVICE SALT LAKE CITY UT
800 AM MDT THU JUL 02 2015

UTZ001>011-023>025-021500-

NORTHERN UTAH

CITY           SKY/WX    TMP DP  RH WIND       PRES   REMARKS
HILL AFB       SUNNY     73  48  41 E15       30.10R
LOGAN          PTSUNNY   67  54  63 W3        30.09R
OGDEN          SUNNY     75  49  39 S8        30.07R
PROVO AIRPORT  PTSUNNY   73  52  46 SE7       30.11R
SALT LAKE CITY MOSUNNY   80  53  39 S7        30.05R
VERNAL         PTSUNNY   68  51  54 SW5       30.15R
WENDOVER       SUNNY     86  46  25 W9G16     30.08S
WEST JORDAN    SUNNY     81  50  34 CALM      30.10R

$$

UTZ012>022-026-027-021500-

SOUTHERN/CENTRAL UTAH

CITY           SKY/WX    TMP DP  RH WIND       PRES   REMARKS
BRYCE CANYON   CLOUDY    61  54  77 W9        30.35S
CEDAR CITY     LGT RAIN  66  57  72 S5        30.21S
MILFORD        PTSUNNY   76  50  40 SW18      30.15R
MOAB/CYNLANDS  SUNNY     82  55  39 SE7       30.05R
PRICE          PTSUNNY   77  42  28 N3        30.17R
ST GEORGE      SUNNY     82  61  47 NE5       30.03R
KANAB          PTSUNNY   73  59  60 CALM      30.23R

$$

REGIONAL REPORTS     COLORADO/ARIZONA

CITY           SKY/WX    TMP DP  RH WIND       PRES   REMARKS
CRAIG, CO      MOSUNNY   62  51  67 N5        30.24R
GRAND JUNCTION CLOUDY    75  54  47 CALM      30.09R
RIFLE          PTSUNNY   69  51  52 CALM      30.17R
MONTROSE       PTSUNNY   74  52  46 E9        30.20R
CORTEZ         PTSUNNY   68  55  63 NW5       30.23R
PAGE, AZ       PTSUNNY   81  55  40 SW5       30.10R
GRAND CANYON     N/A    N/A N/A N/A MISG      30.30R
KINGMAN        PTSUNNY   77  62  59 CALM      30.08R
FLAGSTAFF      MOSUNNY   61  58  90 CALM      30.32R

$$

REGIONAL REPORTS    NEVADA/IDAHO/WYOMING

CITY           SKY/WX    TMP DP  RH WIND       PRES   REMARKS
LAS VEGAS, NV  CLOUDY    84  69  60 S12       29.93F
ELY            PTSUNNY   65  51  60 CALM      30.27R
ELKO           MOSUNNY   69  51  52 E3        30.18F
POCATELLO, ID  SUNNY     69  58  67 E3        30.12R
BURLEY         MOSUNNY   68  55  63 CALM      30.08R
EVANSTON, WY   MOSUNNY   63  44  50 CALM      30.30R
ROCK SPRINGS   MOSUNNY   64  52  64 E12       30.31R

$$



USA.gov is the U.S. government's official web portal to all federal, state and local government web resources and services.